Location: Columbus
(29.5618°N, 96.6770°W)
Time: 13:01:08
(UTC-05:00)

Iridium 59 - Visible Passes

Search period start: 28 May 2015 00:00
Search period end: 07 June 2015 00:00
Orbit: 776 x 779 km, 86.4° (Epoch: 28 May)

Date Brightness Start Highest point End Pass type
(mag) Time Alt. Az. Time Alt. Az. Time Alt. Az.
28 May 7.2 01:22:35 22° N 01:22:35 22° N 01:24:24 10° N visible
29 May 7.3 00:49:04 20° NNE 00:49:04 20° NNE 00:50:41 10° NNE visible
30 May 7.5 00:15:33 14° NE 00:15:33 14° NE 00:16:25 10° NNE visible
30 May 7.4 01:56:00 16° NW 01:56:00 16° NW 01:57:19 10° NNW visible
31 May 7.2 01:22:28 22° NNW 01:22:28 22° NNW 01:24:23 10° N visible
01 Jun 7.0 00:48:56 24° N 00:48:56 24° N 00:50:57 10° N visible
02 Jun 7.2 00:15:23 19° NNE 00:15:23 19° NNE 00:17:02 10° NNE visible
02 Jun 7.6 01:55:51 13° NW 01:55:51 13° NW 01:56:41 10° NW visible
02 Jun 7.5 23:41:50 12° NE 23:41:50 12° NE 23:42:25 10° NE visible
03 Jun 7.2 01:22:18 21° NNW 01:22:18 21° NNW 01:24:12 10° NNW visible
04 Jun 6.9 00:48:45 27° N 00:48:45 27° N 00:51:02 10° N visible
05 Jun 6.9 00:15:11 25° NNE 00:15:11 25° NNE 00:17:25 10° NNE visible
05 Jun 7.1 23:41:36 18° NE 23:41:36 18° NE 23:43:16 10° NNE visible
06 Jun 7.3 01:22:03 17° NW 01:22:03 17° NW 01:23:46 10° NNW visible
06 Jun 7.5 23:08:01 10° NE 23:08:01 10° NE 23:08:06 10° NE visible
